Strona główna
METAR-TAF:

METAR-TAF

Lotnisko :

Mitchell Municipal Airport

Mitchell, Dakota Południowa, Stany Zjednoczone

Szerokość geograficzna: 43-46N, Długość geograficzna: 098-02W, wysokość: 397 m

Aktualna obserwacja pogody

Raport powstał 59 minut temu, godzina 02:53 UTC
Wiatr 3 kt od południowy wschód
Temperatura 21°C
Wilgotność 64%
Ciśnienie 1013 hPa
Widzialność: 16.1 km
bezchmurnie

METAR: KMHE 260253Z AUTO 14003KT 10SM CLR 21/14 A2991 RMK AO2 SLP121 60000 T02110144 53010

czas: 22:52 (03:52 UTC)


TAF: brakujący

Obserwacja i prognoza pogody dla ponad 4000 lotnisk (raport METAR i TAF).

Dostępne stacje oznaczono żółtymi i czerwonymi punktami na mapie.

Najedź kursorem aby zobaczyć nazwę stacji.

Kliknij aby zobaczyć obserwacje i prognozy pogody.

Aby zmienić mapę: kliknij na zielony przycisk z czarnym krzyżykiem, aby powiększyć; na zielony przycisk z myślnikiem, aby pomniejszyć; na zielone strzałki, aby przejść do map sąsiednich.


METAR-TAF: